Weather History for Altus, OK

Change the Weather History Date:

Saturday, November 17, 2012

  Actual Average (KLTS) Record (KLTS)
Temperature  
Mean Temperature 52 °F -  
Max Temperature 66 °F 59 °F 80 °F (1999)
Min Temperature 37 °F 37 °F 21 °F (2005)
Degree Days  
Heating Degree Days 14    
Growing Degree Days 2 (Base 50)    
Moisture  
Dew Point 32 °F    
Average Humidity 50    
Maximum Humidity 81    
Minimum Humidity 30    
Precipitation  
Precipitation 0.00 in - - ()
Sea Level Pressure  
Sea Level Pressure 30.29 in    
Wind  
Wind Speed 9 mph (SE)    
Max Wind Speed 16 mph    
Max Gust Speed 23 mph    
Visibility 10 miles    
Events      
Averages and records for this station are not official NWS values.
T = Trace of Precipitation, MM = Missing Value Source: NWS Daily Summary

Daily Weather History Graph

Daily Weather History Graph

Search for Another Location

Airport:

Trip Planner

Search our weather history database for the weather conditions in past years. The results will help you decide how hot, cold, wet, or windy it might be!

Date:

Astronomy

Nov. 17, 2012 Rise Set
Actual Time 7:13 AM CST 5:30 PM CST
Civil Twilight 6:46 AM CST 5:57 PM CST
Nautical Twilight 6:16 AM CST 6:28 PM CST
Astronomical Twilight 5:46 AM CST 6:58 PM CST
Moon 10:59 AM CST (11/17) 9:41 PM CST (11/17)
Length of Visible Light 11h 11m
Length of Day
10h 17m
Waxing Crescent, 20% of the Moon is Illuminated
Nov 17
Waxing Crescent
Nov 20
First Quarter
Nov 28
Full
Dec 6
Last Quarter
Dec 13
New

Hourly Weather History & Observations

Time (CST) Temp. Windchill Dew Point Humidity Pressure Visibility Wind Dir Wind Speed Gust Speed Precip Events Conditions
12:15 AM 44.6 °F 41.4 °F 32.0 °F 61% 30.35 in 10.0 mi SE 5.8 mph - N/A   Clear
12:35 AM 42.8 °F 38.6 °F 32.0 °F 66% 30.34 in 10.0 mi SE 6.9 mph - N/A   Clear
12:55 AM 42.8 °F 38.6 °F 32.0 °F 66% 30.34 in 10.0 mi SE 6.9 mph - N/A   Clear
1:15 AM 42.8 °F 38.6 °F 32.0 °F 66% 30.34 in 10.0 mi SE 6.9 mph - N/A   Clear
1:35 AM 42.8 °F 39.3 °F 32.0 °F 66% 30.33 in 10.0 mi SE 5.8 mph - N/A   Clear
1:55 AM 41.0 °F 38.0 °F 32.0 °F 70% 30.34 in 10.0 mi SE 4.6 mph - N/A   Clear
2:15 AM 41.0 °F 38.0 °F 32.0 °F 70% 30.34 in 10.0 mi ESE 4.6 mph - N/A   Clear
2:35 AM 41.0 °F 37.1 °F 32.0 °F 70% 30.34 in 10.0 mi ESE 5.8 mph - N/A   Clear
2:55 AM 41.0 °F 36.4 °F 32.0 °F 70% 30.34 in 10.0 mi ESE 6.9 mph - N/A   Clear
3:15 AM 39.2 °F 34.2 °F 32.0 °F 75% 30.33 in 10.0 mi ESE 6.9 mph - N/A   Clear
3:35 AM 39.2 °F 34.2 °F 32.0 °F 75% 30.34 in 10.0 mi ESE 6.9 mph - N/A   Clear
3:55 AM 39.2 °F 35.0 °F 32.0 °F 75% 30.34 in 10.0 mi ESE 5.8 mph - N/A   Clear
4:35 AM 39.2 °F 34.2 °F 32.0 °F 75% 30.33 in 10.0 mi ESE 6.9 mph - N/A   Clear
4:55 AM 39.2 °F 34.2 °F 32.0 °F 75% 30.33 in 10.0 mi ESE 6.9 mph - N/A   Clear
5:15 AM 39.2 °F 33.6 °F 32.0 °F 75% 30.33 in 10.0 mi ESE 8.1 mph - N/A   Clear
5:35 AM 39.2 °F 33.6 °F 32.0 °F 75% 30.33 in 10.0 mi ESE 8.1 mph - N/A   Clear
6:15 AM 37.4 °F 32.1 °F 32.0 °F 81% 30.33 in 10.0 mi ESE 6.9 mph - N/A   Clear
6:35 AM 37.4 °F 32.1 °F 32.0 °F 81% 30.33 in 10.0 mi ESE 6.9 mph - N/A   Clear
7:35 AM 37.4 °F 31.4 °F 32.0 °F 81% 30.36 in 10.0 mi East 8.1 mph - N/A   Clear
8:15 AM 41.0 °F 35.8 °F 32.0 °F 70% 30.36 in 10.0 mi ESE 8.1 mph - N/A   Scattered Clouds
8:35 AM 42.8 °F 38.6 °F 32.0 °F 66% 30.37 in 10.0 mi ESE 6.9 mph - N/A   Mostly Cloudy
8:55 AM 44.6 °F 40.2 °F 32.0 °F 61% 30.37 in 10.0 mi SE 8.1 mph - N/A   Scattered Clouds
9:15 AM 46.4 °F 42.4 °F 32.0 °F 57% 30.36 in 10.0 mi SE 8.1 mph - N/A   Clear
9:35 AM 50.0 °F - 32.0 °F 50% 30.36 in 10.0 mi SE 10.4 mph - N/A   Clear
9:55 AM 51.8 °F - 32.0 °F 47% 30.36 in 10.0 mi SSE 12.7 mph 17.3 mph N/A   Clear
10:15 AM 53.6 °F - 32.0 °F 44% 30.35 in 10.0 mi SSE 15.0 mph - N/A   Clear
10:35 AM 55.4 °F - 32.0 °F 41% 30.35 in 10.0 mi SSE 16.1 mph - N/A   Clear
11:55 AM 60.8 °F - 32.0 °F 34% 30.33 in 10.0 mi South 15.0 mph 20.7 mph N/A   Clear
12:15 PM 62.6 °F - 32.0 °F 32% 30.32 in 10.0 mi SSE 12.7 mph - N/A   Clear
12:35 PM 62.6 °F - 32.0 °F 32% 30.31 in 10.0 mi South 15.0 mph 19.6 mph N/A   Clear
1:15 PM 64.4 °F - 33.8 °F 32% 30.28 in 10.0 mi South 16.1 mph - N/A   Scattered Clouds
1:35 PM 64.4 °F - 33.8 °F 32% 30.27 in 10.0 mi South 15.0 mph 23.0 mph N/A   Clear
1:55 PM 64.4 °F - 33.8 °F 32% 30.26 in 10.0 mi South 13.8 mph 19.6 mph N/A   Clear
2:15 PM 66.2 °F - 33.8 °F 30% 30.25 in 10.0 mi South 13.8 mph 19.6 mph N/A   Clear
2:35 PM 66.2 °F - 33.8 °F 30% 30.24 in 10.0 mi South 15.0 mph - N/A   Clear
3:15 PM 66.2 °F - 33.8 °F 30% 30.24 in 10.0 mi South 15.0 mph - N/A   Clear
3:35 PM 66.2 °F - 33.8 °F 30% 30.23 in 10.0 mi SSE 13.8 mph - N/A   Clear
4:15 PM 66.2 °F - 33.8 °F 30% 30.23 in 10.0 mi SSE 16.1 mph - N/A   Clear
4:35 PM 64.4 °F - 33.8 °F 32% 30.23 in 10.0 mi SSE 12.7 mph - N/A   Clear
4:55 PM 64.4 °F - 33.8 °F 32% 30.22 in 10.0 mi SSE 16.1 mph - N/A   Clear
5:15 PM 62.6 °F - 35.6 °F 37% 30.22 in 10.0 mi SSE 12.7 mph - N/A   Clear
5:35 PM 60.8 °F - 33.8 °F 36% 30.22 in 10.0 mi SSE 11.5 mph - N/A   Clear
5:55 PM 60.8 °F - 33.8 °F 36% 30.22 in 10.0 mi SSE 11.5 mph - N/A   Clear
6:15 PM 59.0 °F - 33.8 °F 39% 30.22 in 10.0 mi SE 11.5 mph - N/A   Clear
6:35 PM 59.0 °F - 33.8 °F 39% 30.22 in 10.0 mi SE 12.7 mph - N/A   Clear
6:55 PM 57.2 °F - 32.0 °F 38% 30.23 in 10.0 mi SE 12.7 mph - N/A   Clear
7:15 PM 55.4 °F - 32.0 °F 41% 30.23 in 10.0 mi SE 12.7 mph - N/A   Clear
7:35 PM 55.4 °F - 32.0 °F 41% 30.23 in 10.0 mi SE 12.7 mph - N/A   Clear
7:55 PM 53.6 °F - 32.0 °F 44% 30.23 in 10.0 mi SE 11.5 mph - N/A   Clear
8:15 PM 53.6 °F - 30.2 °F 41% 30.23 in 10.0 mi SE 12.7 mph - N/A   Clear
8:35 PM 53.6 °F - 28.4 °F 38% 30.22 in 10.0 mi SE 13.8 mph - N/A   Clear
8:55 PM 53.6 °F - 28.4 °F 38% 30.23 in 10.0 mi SE 12.7 mph - N/A   Clear
9:15 PM 51.8 °F - 28.4 °F 41% 30.24 in 10.0 mi SE 11.5 mph - N/A   Clear
9:35 PM 51.8 °F - 28.4 °F 41% 30.24 in 10.0 mi SE 11.5 mph - N/A   Clear
10:15 PM 51.8 °F - 26.6 °F 38% 30.24 in 10.0 mi SE 13.8 mph - N/A   Clear
10:35 PM 50.0 °F - 26.6 °F 40% 30.24 in 10.0 mi SE 13.8 mph - N/A   Clear
11:15 PM 50.0 °F - 26.6 °F 40% 30.23 in 10.0 mi SSE 13.8 mph - N/A   Clear
11:35 PM 50.0 °F - 26.6 °F 40% 30.23 in 10.0 mi SE 12.7 mph - N/A   Clear
11:55 PM 50.0 °F - 28.4 °F 43% 30.23 in 10.0 mi SE 12.7 mph - N/A   Clear